Regional Weather Roundup
Issued by NWS Binghamton, NY

Home | Current Version | Previous Version | Text Only | Print | Product List | Glossary On
Versions: 1 2 3 4 5 6 7 8 9 10 11 12 13 14 15 16 17 18 19 20 21 22 23 24 25 26 27 28 29 30 31 32 33 34 35 36 37 38 39 40 41 42 43 44 45 46 47 48 49 50
000
ASUS41 KBGM 302010
RWRBGM
RWRBGM
BINGHAMTON REGIONAL WEATHER ROUNDUP
NATIONAL WEATHER SERVICE BINGHAMTON NY
400 PM EDT THU JUL 30 2015

Note: "fair" indicates few or no clouds below 12,000 feet with no
significant weather and/or obstructions to visibility.

* = Station(s) that does not report precipitation, such as rain,
snow, etc, also no thunder or fog.

!NYZ009-015>018-022>025-036-037-044>046-055>057-062-302100
...CENTRAL NEW YORK...

CITY           SKY/WX    TMP DP  RH WIND       PRES   REMARKS
BINGHAMTON     MOSUNNY   80  59  48 NW10      29.87F
CORTLAND       FAIR      81  59  47 W9        29.87F
DANSVILLE      MOSUNNY   82  56  40 NW12G20   29.86F
ELMIRA         MOSUNNY   85  61  44 NW8       29.84F HX  85
ITHACA         MOSUNNY   82  62  50 NW12      29.87F
HORNELL          N/A     82  57  42 W15G21    29.91
MONTICELLO     CLOUDY    77  73  88 W7        29.86F
NORWICH        MOSUNNY   81  61  50 NW9       29.84F
ONEONTA        SUNNY     79  55  44 W12G18    29.86F
PENN YAN       SUNNY     83  59  44 W14G20    29.85F
ROME           MOSUNNY   82  60  47 NW14      29.80F
SIDNEY         MOSUNNY   81  68  65 NW6       29.84S
SYRACUSE       PTSUNNY   84  65  52 W14       29.80F HX  86
$$

!PAZ038>040-043-044-047-048-072-302100
...NORTHEAST PENNSYLVANIA...

CITY           SKY/WX    TMP DP  RH WIND       PRES   REMARKS
HAZLETON       PTSUNNY   81  68  65 W7        29.91F
SCRANTON       PTSUNNY   86  67  52 VRB7      29.83F HX  89
TOWANDA*       MOSUNNY   84  59  42 MISG      29.85F
$$
&&
KEY
WCI = WIND CHILL INDEX
VSB = VISIBILITY
HX  = HEAT INDEX
$$


USA.gov is the U.S. government's official web portal to all federal, state and local government web resources and services.